Regional Weather Roundup
Issued by NWS Sioux Falls, SD

Home | Current Version | Previous Version | Text Only | Print | Product List | Glossary Off
Versions: 1 2 3 4 5 6 7 8 9 10 11 12 13 14 15 16 17 18 19 20 21 22 23 24 25 26 27 28 29 30 31 32 33 34 35 36 37 38 39 40 41 42 43 44 45 46 47 48 49 50

000
ASUS43 KFSD 032110
RWRFSD

WEATHER ROUNDUP FOR SE SOUTH DAKOTA/SW MINNESOTA/NW IOWA
NATIONAL WEATHER SERVICE SIOUX FALLS SD
300 PM CST TUE MAR 03 2015

NOTE: "FAIR" INDICATES FEW OR NO CLOUDS BELOW 12,000 FEET WITH NO
SIGNIFICANT WEATHER AND OR OBSTRUCTIONS TO VISIBILITY.


SDZ038>040-050-052>070-032200-
SOUTHEAST SOUTH DAKOTA

CITY           SKY/WX    TMP DP  RH WIND       PRES   REMARKS
CHAMBERLAIN    PTSUNNY   18   3  52 NW21G28   30.02F WCI   1
HURON          MOSUNNY   16   4  59 NW28G35   30.00F WCI  -4
MADISON        FLURRIES  14   9  79 NW26G37   29.92R WCI  -6
MITCHELL       PTSUNNY   18   7  62 NW24G32   30.01F WCI   0
SIOUX FALLS    PTSUNNY   16   7  67 NW26G37   29.92S BLWGSNOWWCI  -3
WINNER         CLOUDY    19   1  45 NW23G32   30.00F WCI   2
YANKTON        SUNNY    N/A N/A N/A NW29G35   29.98S
$$

MNZ071-072-080-081-089-090-097-098-032200-
SOUTHWEST MINNESOTA

CITY           SKY/WX    TMP DP  RH WIND       PRES   REMARKS
FAIRMONT       CLOUDY    23  12  63 W28       29.80R WCI   6
JACKSON        LGT SNOW  21  14  73 NW25G33   29.83R WCI   4
LUVERNE        SUNNY     19  10  68 NW22G31   29.90S WCI   3
MARSHALL       MOSUNNY   16   5  62 NW32      29.89S WCI  -5
MONTEVIDEO     CLOUDY    18  16  93 N22G29    29.91R WCI   0
PIPESTONE      CLOUDY    14   9  79 NW23G30   29.87S HAZE    WCI  -5
REDWOOD FALLS  FLURRIES  17   7  64 NW23G36   29.86R WCI  -1
TRACY            N/A     18  11  73 NW25G33   29.87S HAZE    WCI   0
WINDOM         LGT SNOW  18  10  73 NW31G39   29.84R WCI  -2
WORTHINGTON    CLOUDY    19  10  68 NW26G32   29.86R WCI   1
$$

IAZ001>003-012>014-020>022-031-032-NEZ013-014-SDZ071-032200-
NORTHWEST IOWA

CITY           SKY/WX    TMP DP  RH WIND       PRES   REMARKS
CHEROKEE       PTSUNNY   25  16  68 NW23G33   29.87S WCI  10
DENISON        CLOUDY    28  21  74 N22G30    29.85R WCI  15
ESTHERVILLE    CLOUDY    22  16  78 NW23G35   29.83R WCI   6
LE MARS        PTSUNNY   25  16  68 NW21G31   29.93R WCI  10
ORANGE CITY    MOSUNNY   25  14  63 NW21G30   29.88R WCI  10
SHELDON        FLURRIES  21  14  73 NW24G37   29.86R WCI   4
SIOUX CITY     FLURRIES  28  13  53 N29G41    29.91R WCI  12
SPENCER        PTSUNNY   25  15  66 NW28G33   29.84R WCI   9
STORM LAKE     MIX PCPN  25  18  74 NW26G33   29.85R WCI   9
$$

ABBREVIATIONS USED IN REMARKS
   TC - TEMPERATURE IN CELSIUS
  WCI - WIND CHILL INDEX
   HX - HEAT INDEX
  VSB - VISIBILITY




USA.gov is the U.S. government's official web portal to all federal, state and local government web resources and services.